This is the latest recevied weather packets stored in our database for station/object N8QF. If no packets are shown the sender has not sent any weather packets the latest 1 day(s).
| Time | Temp. | Humidity | Pressure | Rain* | Wind** | Luminosity | Snow |
|---|---|---|---|---|---|---|---|
| 1778043178 | 10° C | 95% | 1006.3 hPa | 2.54 mm | - | - | - |
| 1778042878 | 10° C | 95% | 1006.1 hPa | 2.54 mm | - | - | - |
| 1778042577 | 10° C | 95% | 1006.2 hPa | 2.54 mm | - | - | - |
| 1778042277 | 10.56° C | 95% | 1006.3 hPa | 2.03 mm | - | - | - |
| 1778041974 | 10° C | 95% | 1006.5 hPa | 1.52 mm | - | - | - |
| 1778041674 | 10.56° C | 95% | 1006.3 hPa | 1.27 mm | - | - | - |
| 1778041372 | 10.56° C | 95% | 1006.3 hPa | 1.27 mm | - | - | - |
| 1778041072 | 10.56° C | 95% | 1006.3 hPa | 0.76 mm | - | - | - |
| 1778040772 | 10.56° C | 95% | 1006.4 hPa | 0.51 mm | - | - | - |
| 1778040472 | 10.56° C | 95% | 1006.3 hPa | 0.25 mm | - | - | - |
| 1778039871 | 11.11° C | 95% | 1005.9 hPa | 17.27 mm | - | - | - |
| 1778039571 | 11.11° C | 95% | 1005.9 hPa | 17.27 mm | - | - | - |
| 1778039271 | 11.67° C | 95% | 1006 hPa | 16.76 mm | - | - | - |
| 1778038370 | 11.67° C | 95% | 1005.9 hPa | 16.76 mm | - | - | - |
| 1778038070 | 11.67° C | 95% | 1005.8 hPa | 16.76 mm | - | - | - |
| 1778037770 | 11.67° C | 95% | 1005.9 hPa | 16.51 mm | - | - | - |
| 1778037169 | 11.67° C | 95% | 1006.2 hPa | 16.51 mm | - | - | - |
| 1778036869 | 11.67° C | 94% | 1006.2 hPa | 16.51 mm | - | - | - |
| 1778036569 | 11.67° C | 94% | 1006 hPa | 16.51 mm | - | - | - |
| 1778036268 | 11.67° C | 94% | 1006.4 hPa | 16.26 mm | - | - | - |
| 1778035968 | 11.67° C | 94% | 1006.2 hPa | 16.26 mm | - | - | - |
| 1778035668 | 11.67° C | 94% | 1006.5 hPa | 16.26 mm | - | - | - |
| 1778035368 | 11.67° C | 93% | 1006.8 hPa | 16 mm | - | - | - |
| 1778035068 | 12.78° C | 92% | 1006.9 hPa | 15.75 mm | - | - | - |
| 1778034767 | 13.33° C | 91% | 1007.1 hPa | 15.49 mm | - | - | - |
* Rain since midnight (hover to see other rain measurements)
** Current wind speed in m/s (hover to see current wind gust speed)